Wind_Speed
16 17 17 16 16 16 16 18 18 18 20 21 22 23 23 23 23 24 24 25 25 25 25 25 26 27 28 27 28 28 28 27 28 28 28 28 28 27 28 29 28 27 26
17 16 16 16 17 18 18 18 18 19 21 22 23 24 24 25 25 25 25 25 26 26 26 26 26 27 28 28 28 29 29 29 29 29 29 28 28 28 29 29 30 29 28
17 16 17 17 17 18 19 20 20 21 22 23 24 25 25 26 26 26 26 27 27 27 27 27 28 28 28 28 28 28 28 28 29 29 28 28 27 29 29 29 29 30 30
16 17 17 17 17 19 20 21 21 22 23 24 25 26 27 27 27 28 28 28 28 28 28 28 28 28 29 29 29 28 28 28 28 28 27 27 27 28 28 28 29 29 29
17 17 17 18 19 20 21 21 22 23 24 24 25 26 27 27 28 28 29 29 28 28 28 29 29 29 28 29 29 28 28 28 28 28 28 28 27 27 28 28 28 28 28
16 17 18 18 19 20 21 21 22 24 25 25 26 27 28 28 28 28 28 28 27 27 28 29 30 29 29 28 28 28 27 27 27 27 27 27 27 26 27 27 28 28 28
16 16 17 18 20 20 21 22 23 25 26 27 27 28 28 28 29 29 28 28 27 27 28 28 29 29 29 28 28 28 28 28 27 27 28 28 28 27 27 27 27 28 27
16 16 17 19 20 21 22 23 24 26 27 28 29 29 29 29 29 29 29 28 28 28 28 28 28 28 28 28 28 28 28 27 27 27 27 27 28 27 27 27 28 28 28
16 16 18 19 21 22 24 24 25 27 27 28 29 30 29 29 29 29 29 29 28 28 29 29 28 28 28 28 28 28 28 28 27 27 27 27 27 26 26 27 27 28 28
15 17 18 20 22 23 25 25 26 27 27 27 27 27 27 28 28 28 28 28 28 29 29 28 28 27 27 28 28 28 28 28 28 28 27 27 27 26 26 26 26 27 28
16 18 20 22 23 23 24 25 26 26 26 26 25 25 25 25 26 26 26 26 27 28 27 27 26 26 26 26 26 26 27 27 28 28 28 28 27 26 26 26 27 27 28
17 19 21 22 22 23 24 24 25 25 25 24 24 24 23 23 24 24 25 25 26 25 25 25 26 25 25 24 24 24 24 25 26 26 26 27 26 26 26 26 26 26 27
18 20 21 21 22 23 23 23 23 23 23 23 23 23 23 23 23 24 24 24 24 24 24 24 24 24 23 23 23 22 22 23 23 24 24 24 24 25 25 25 26 26 25
19 21 21 21 21 21 21 21 21 21 21 22 22 22 22 23 23 23 23 23 23 23 22 22 22 22 22 22 21 21 21 22 22 23 23 23 23 23 24 24 25 25 25
20 19 19 19 19 20 20 20 20 20 21 21 21 21 21 22 21 21 21 21 20 20 20 19 20 20 20 20 19 19 19 20 20 21 21 22 22 22 23 23 23 24 24
19 19 19 18 18 19 19 19 19 19 20 20 20 20 19 19 18 18 18 17 17 17 17 16 17 17 18 17 17 17 17 17 17 17 17 18 19 20 20 20 20 21 21
19 20 19 17 18 18 18 18 18 18 18 18 18 18 17 17 16 15 15 15 14 14 14 14 14 14 14 14 15 14 14 14 14 13 14 15 16 17 17 17 18 19 19
19 19 18 18 18 17 16 16 17 17 17 17 16 16 15 14 14 14 14 13 12 12 11 11 10 10 10 10 11 11 11 11 11 12 13 13 13 14 15 15 15 15 16
17 17 17 17 16 15 15 15 15 16 16 15 14 14 12 12 12 12 11 11 10 10 9 8 7 6 6 6 6 6 7 7 8 9 10 10 9 10 11 11 12 12 13
16 16 16 15 14 14 14 14 14 14 13 13 12 11 10 10 10 9 9 9 8 7 6 5 5 5 4 4 3 3 3 3 4 5 5 5 5 6 7 7 8 8 9
16 15 14 13 13 13 13 12 12 12 11 11 9 9 9 9 8 7 6 7 6 6 5 5 4 4 4 4 3 2 2 1 1 1 1 1 1 1 1 2 3 3 4
14 13 12 11 11 10 10 10 9 9 9 8 8 7 7 7 6 6 6 6 7 6 7 6 6 5 5 6 7 6 5 5 5 5 5 4 4 3 3 2 2 1 2
12 11 10 10 9 8 8 8 8 8 8 7 7 6 6 6 6 6 6 7 7 7 7 8 8 8 8 9 10 10 9 9 9 8 7 6 6 6 5 5 4 4 3
11 9 8 8 7 6 6 6 6 7 8 7 7 6 7 7 8 8 8 8 8 8 9 10 10 10 10 11 11 11 11 11 11 10 10 10 10 9 8 7 7 7 6
8 7 7 7 7 6 6 6 6 7 7 7 7 8 8 8 8 9 9 10 10 10 10 11 12 12 12 12 12 11 12 13 13 13 13 13 12 11 11 10 10 9 9
7 7 7 7 7 6 6 7 7 7 7 8 8 8 9 10 10 10 11 11 12 12 13 13 13 13 13 13 14 14 15 15 15 15 15 15 15 14 14 13 13 12 12
Wind_Direction
281 285 284 280 282 285 286 282 277 280 281 282 283 282 283 283 280 279 279 278 277 274 273 273 273 273 272 272 270 269 269 268 268 268 267 265 264 261 258 256 257 257 257
279 284 281 280 283 285 286 286 283 284 283 283 283 284 283 283 282 280 279 279 276 274 274 273 274 274 273 271 270 270 269 268 268 268 267 265 263 262 259 255 255 256 258
279 284 282 282 283 284 285 286 285 284 285 285 284 284 284 283 282 282 282 281 280 277 276 275 275 274 273 272 270 270 267 266 267 268 268 264 262 262 260 257 256 255 257
280 280 282 284 286 286 286 287 286 286 287 286 285 285 284 284 282 282 282 282 280 279 278 277 276 276 274 271 270 269 266 266 265 265 265 264 263 262 260 260 259 256 255
282 283 280 281 285 286 286 287 288 288 288 288 286 286 285 285 284 283 284 282 280 279 278 276 276 275 273 271 269 267 265 265 265 265 264 264 263 261 259 260 259 257 255
280 285 287 285 287 289 289 289 290 290 289 288 287 287 287 286 285 285 283 282 281 280 279 277 276 275 273 270 268 266 264 264 265 264 264 264 263 262 260 260 258 257 257
277 283 286 288 290 290 291 292 292 291 289 288 287 287 286 286 285 284 283 282 281 280 280 279 276 275 272 270 267 266 265 265 265 264 262 263 261 261 261 260 257 255 255
280 281 289 293 292 293 294 292 292 292 290 288 287 286 285 286 284 283 282 282 281 280 280 279 277 274 273 271 268 265 265 264 264 263 261 261 259 260 261 259 256 255 254
282 284 293 296 295 295 295 293 292 292 292 290 289 286 284 284 284 283 281 281 280 279 279 278 276 274 272 272 268 267 264 262 262 262 261 260 259 260 261 260 258 256 255
290 290 294 296 296 297 296 297 296 295 295 292 290 289 287 285 285 284 282 280 279 279 279 278 276 274 273 272 269 267 264 264 262 260 259 258 258 259 259 259 259 257 256
296 295 297 299 299 298 298 298 297 296 295 294 292 290 289 287 287 286 284 282 280 280 279 278 277 275 274 273 270 267 264 263 261 260 258 256 257 257 259 259 259 258 257
299 302 303 303 301 300 300 300 300 299 297 295 293 292 290 289 288 288 286 285 283 281 279 278 277 277 276 273 271 267 264 263 260 259 256 256 257 258 258 257 257 256 257
301 305 305 304 304 303 303 302 301 299 298 297 296 294 293 293 292 291 290 288 286 284 280 278 277 276 274 271 268 267 264 261 260 258 257 257 257 256 256 257 256 255 256
304 306 305 303 303 304 304 303 302 301 300 298 297 296 295 294 293 293 293 291 288 285 282 279 276 275 272 270 269 267 265 263 259 256 254 255 256 256 256 255 255 255 256
308 307 306 305 303 302 302 303 304 304 303 302 300 298 298 296 294 294 295 294 292 289 286 280 276 275 274 272 270 268 266 264 261 257 254 253 253 253 255 255 255 254 254
310 310 307 306 306 305 304 303 304 305 305 304 302 302 301 300 298 297 299 299 297 295 290 284 281 278 276 273 272 270 267 265 260 258 256 256 253 254 254 253 253 253 254
310 310 309 306 308 306 305 305 307 308 308 308 308 306 304 304 303 302 303 304 303 301 297 292 287 282 279 278 277 272 267 266 261 259 260 259 258 256 256 256 256 255 255
311 311 310 308 306 306 306 307 310 310 310 310 312 311 308 307 306 308 309 310 309 310 308 305 300 294 289 283 280 276 268 265 262 262 261 259 261 255 256 255 257 258 258
315 313 312 311 309 307 306 307 310 312 314 314 314 316 314 312 311 312 312 314 317 321 320 319 316 308 301 295 286 276 270 269 268 266 265 261 257 253 252 253 256 259 261
316 315 315 313 313 311 310 311 314 316 320 320 318 319 320 321 322 326 327 329 330 335 340 343 345 343 341 333 317 301 289 283 278 271 263 259 254 250 249 251 253 256 257
317 317 318 318 317 316 316 318 321 322 322 325 324 325 328 333 337 345 352 355 359 1 8 10 13 18 20 16 6 355 352 4 35 76 98 128 137 178 248 273 266 258 259
323 323 326 327 326 323 325 328 330 334 337 336 335 342 349 356 1 10 20 25 25 25 30 35 40 43 51 50 54 60 75 84 85 81 83 85 81 71 63 59 40 1 320
331 332 333 334 335 334 336 340 343 349 351 352 356 1 5 11 22 33 41 42 41 42 50 59 60 64 66 67 70 75 80 82 81 78 79 81 78 73 69 63 56 52 42
339 342 344 345 346 350 357 359 1 3 4 13 24 29 32 40 48 56 60 58 57 62 67 69 72 74 75 77 77 77 77 79 80 80 82 83 80 74 69 68 64 60 56
352 359 360 360 1 5 10 12 15 21 29 38 44 48 49 54 62 68 71 72 71 75 77 78 78 79 79 78 78 79 80 81 81 81 81 81 79 75 73 71 69 63 60
9 11 14 18 22 28 30 35 39 45 52 59 59 57 59 67 72 76 77 78 80 83 83 82 82 83 82 82 83 84 84 83 82 82 81 79 77 75 72 70 68 66 64
Height
5853 5852 5851 5850 5850 5849 5849 5848 5847 5846 5846 5846 5845 5844 5843 5841 5840 5839 5838 5837 5837 5837 5837 5836 5835 5835 5835 5834 5835 5835 5835 5836 5836 5837 5837 5837 5837 5837 5838 5839 5840 5842 5843
5850 5850 5848 5847 5847 5846 5845 5843 5842 5842 5841 5840 5839 5838 5837 5835 5834 5833 5832 5831 5831 5830 5830 5830 5829 5828 5828 5827 5827 5828 5828 5829 5829 5829 5830 5830 5831 5831 5831 5832 5834 5835 5836
5846 5845 5845 5844 5843 5842 5840 5839 5838 5837 5836 5835 5833 5832 5831 5830 5828 5826 5825 5824 5823 5823 5822 5822 5822 5821 5820 5820 5820 5820 5820 5821 5821 5822 5822 5823 5823 5824 5824 5825 5826 5828 5829
5841 5841 5840 5838 5838 5837 5836 5835 5833 5832 5830 5829 5827 5826 5824 5823 5821 5820 5818 5817 5816 5815 5815 5814 5814 5813 5813 5812 5812 5813 5813 5813 5814 5814 5815 5816 5816 5816 5817 5818 5819 5820 5822
5836 5836 5835 5834 5833 5832 5831 5829 5827 5826 5824 5822 5821 5819 5817 5816 5814 5813 5811 5810 5808 5808 5807 5806 5806 5805 5805 5805 5805 5805 5805 5806 5806 5806 5807 5808 5808 5809 5810 5811 5812 5813 5815
5832 5831 5830 5829 5828 5827 5825 5823 5821 5819 5818 5816 5814 5812 5810 5809 5807 5805 5804 5802 5801 5800 5799 5798 5798 5797 5797 5797 5797 5797 5797 5798 5798 5799 5800 5800 5801 5802 5802 5803 5805 5806 5807
5827 5826 5826 5824 5823 5821 5819 5816 5814 5813 5811 5809 5806 5804 5803 5801 5799 5798 5796 5795 5793 5792 5791 5790 5790 5789 5789 5789 5789 5789 5789 5790 5790 5791 5792 5793 5794 5794 5795 5796 5797 5799 5800
5822 5821 5820 5819 5817 5815 5812 5810 5808 5806 5804 5801 5799 5797 5795 5793 5791 5790 5788 5787 5786 5785 5784 5783 5782 5781 5781 5781 5781 5781 5781 5782 5782 5783 5784 5785 5786 5787 5787 5789 5790 5791 5792
5817 5816 5814 5813 5811 5808 5806 5804 5801 5799 5796 5793 5791 5789 5787 5785 5783 5782 5780 5779 5778 5777 5776 5775 5774 5773 5773 5772 5772 5772 5773 5773 5774 5775 5776 5777 5778 5779 5780 5781 5782 5784 5785
5812 5811 5809 5807 5804 5802 5799 5796 5794 5791 5788 5785 5783 5781 5779 5777 5775 5774 5772 5771 5770 5769 5767 5766 5765 5765 5765 5764 5764 5764 5764 5765 5766 5767 5768 5769 5770 5771 5772 5773 5774 5775 5777
5807 5805 5803 5801 5798 5795 5792 5789 5786 5783 5781 5778 5775 5773 5771 5769 5768 5766 5765 5763 5762 5761 5759 5758 5757 5757 5756 5756 5756 5756 5756 5756 5757 5758 5760 5761 5762 5764 5765 5766 5766 5768 5769
5803 5800 5798 5795 5792 5789 5786 5783 5779 5776 5774 5771 5769 5766 5764 5762 5761 5759 5757 5756 5754 5753 5751 5750 5750 5749 5749 5748 5748 5748 5748 5749 5749 5750 5752 5753 5754 5756 5757 5758 5759 5760 5761
5798 5795 5792 5789 5786 5783 5780 5777 5774 5771 5768 5765 5763 5760 5758 5756 5754 5752 5750 5748 5746 5745 5744 5743 5742 5742 5741 5741 5741 5741 5741 5741 5742 5743 5744 5745 5747 5748 5750 5751 5752 5753 5754
5792 5789 5787 5784 5781 5778 5775 5772 5769 5766 5763 5760 5757 5755 5752 5750 5748 5746 5744 5741 5739 5737 5736 5735 5735 5735 5734 5734 5734 5734 5734 5735 5735 5736 5737 5738 5740 5742 5743 5744 5745 5746 5747
5787 5784 5781 5778 5775 5773 5770 5767 5764 5761 5758 5755 5752 5749 5747 5744 5742 5740 5737 5735 5733 5731 5730 5729 5728 5728 5728 5727 5727 5728 5728 5728 5729 5730 5731 5732 5733 5734 5736 5737 5738 5739 5740
5783 5780 5777 5774 5771 5768 5765 5762 5759 5756 5753 5750 5747 5744 5742 5739 5737 5735 5732 5730 5728 5726 5724 5723 5722 5722 5722 5721 5722 5722 5722 5723 5723 5724 5725 5726 5727 5728 5729 5730 5731 5732 5733
5778 5775 5771 5769 5766 5763 5760 5758 5755 5752 5749 5746 5743 5740 5737 5735 5733 5731 5728 5726 5724 5722 5720 5719 5718 5717 5717 5717 5717 5717 5717 5718 5719 5719 5720 5721 5722 5722 5724 5725 5725 5726 5727
5773 5770 5767 5764 5761 5758 5756 5753 5751 5748 5745 5742 5739 5736 5734 5732 5729 5727 5725 5723 5721 5719 5717 5716 5715 5714 5713 5713 5713 5713 5714 5714 5715 5716 5716 5717 5717 5718 5719 5720 5721 5722 5722
5768 5765 5762 5759 5757 5754 5752 5749 5747 5744 5741 5738 5736 5733 5731 5729 5727 5725 5723 5721 5719 5717 5715 5714 5712 5712 5711 5711 5711 5711 5711 5712 5712 5713 5713 5714 5714 5715 5715 5717 5717 5718 5718
5764 5761 5758 5755 5753 5750 5748 5746 5743 5741 5738 5736 5733 5731 5729 5727 5725 5723 5721 5719 5718 5716 5714 5713 5712 5711 5710 5710 5710 5710 5710 5710 5710 5711 5711 5711 5712 5712 5713 5714 5714 5714 5715
5760 5757 5755 5752 5750 5747 5745 5742 5740 5738 5736 5734 5732 5729 5727 5725 5723 5722 5720 5719 5717 5716 5714 5713 5712 5711 5710 5710 5710 5709 5709 5710 5710 5710 5710 5711 5711 5712 5712 5712 5712 5712 5712
5756 5754 5751 5749 5747 5745 5742 5740 5738 5736 5734 5732 5730 5728 5726 5725 5723 5722 5720 5719 5718 5716 5715 5714 5713 5712 5711 5711 5710 5710 5710 5710 5710 5711 5711 5711 5711 5712 5712 5712 5711 5711 5711
5754 5751 5749 5747 5745 5743 5741 5739 5738 5735 5733 5731 5730 5728 5726 5725 5723 5722 5721 5720 5719 5718 5716 5715 5715 5714 5713 5713 5712 5712 5712 5712 5712 5712 5712 5712 5712 5712 5712 5712 5712 5711 5711
5752 5750 5748 5746 5744 5742 5740 5739 5737 5735 5733 5731 5730 5728 5727 5726 5724 5723 5722 5721 5720 5719 5719 5718 5717 5716 5716 5716 5715 5715 5715 5714 5714 5714 5714 5714 5714 5714 5714 5713 5713 5713 5712
5751 5749 5747 5745 5743 5742 5740 5739 5737 5735 5734 5732 5731 5730 5728 5727 5726 5725 5724 5723 5722 5722 5721 5721 5720 5719 5719 5719 5719 5718 5718 5718 5717 5717 5717 5717 5716 5716 5716 5716 5715 5714 5714
5751 5749 5747 5746 5744 5742 5741 5739 5738 5736 5735 5734 5733 5731 5730 5729 5728 5727 5726 5726 5725 5725 5724 5724 5723 5723 5723 5722 5722 5722 5721 5721 5721 5721 5721 5720 5720 5719 5719 5718 5718 5717 5716